User: anonymous   Login
Location: Unspecified
(0.0000°N, 0.0000°E)
Time: 03:12:02
(UTC+00:00)
Language:

NOAA 15 - Orbit

View from above orbital plane
View from above orbital plane
View from above satellite
View from above satellite

Ground track
Ground track

The orbit data is extracted from the following two-line orbital elements,

1 25338U 98030A   17349.61727571 +.00000038 +00000-0 +34698-4 0  9996
2 25338 098.7776 000.8523 0011251 044.4186 315.7894 14.25830706018600
Epoch (UTC): 15 December 2017 14:48:52
Eccentricity: 0.0011251
inclination: 98.7776°
perigee height: 797 km
apogee height: 814 km
right ascension of ascending node: 0.8523°
argument of perigee: 44.4186°
revolutions per day: 14.25830706
mean anomaly at epoch: 315.7894°
orbit number at epoch: 1860

The dashed part of the orbit path shows where the satellite is in the earth's shadow,  

DLR